Wind_Speed
27 27 26 26 26 26 26 26 26 26 26 26 27 27 28 28 28 29 29 30 31 31 32 33 33 32 32 32 31 31 31 31 31 32 32 32 32 31 31 30 29 28 28
27 27 27 27 27 27 27 27 28 27 27 27 27 28 28 29 29 29 30 31 31 32 32 32 32 33 33 33 33 32 32 32 32 32 33 33 34 34 34 33 33 33 32
28 28 27 27 28 28 28 28 28 28 28 28 28 29 29 29 29 30 31 31 32 32 33 33 33 33 34 34 34 34 34 35 35 35 35 36 36 37 37 37 37 37 37
30 29 29 29 29 29 29 29 29 29 29 29 30 29 29 30 30 31 31 32 32 32 32 33 33 33 34 34 35 36 36 37 37 38 39 39 40 40 41 41 42 42 42
32 32 31 31 30 30 30 30 30 30 31 31 31 31 31 31 32 32 33 33 33 32 32 32 33 33 34 34 35 36 37 37 38 39 40 41 42 43 44 44 45 45 45
36 35 34 33 33 32 32 32 32 32 33 33 33 33 33 34 34 35 35 34 34 34 33 33 33 34 34 35 35 36 37 38 39 39 41 42 43 44 45 46 46 47 48
39 38 37 36 36 35 35 35 34 34 35 35 35 35 35 36 36 36 36 36 35 35 35 35 35 35 35 36 36 37 38 38 39 40 41 42 43 45 46 47 48 49 50
41 41 40 40 39 39 38 38 37 37 37 37 37 38 37 37 37 37 37 37 36 36 37 37 37 37 37 38 38 38 39 40 41 42 43 43 45 46 47 48 49 50 51
45 44 43 43 43 42 41 40 40 40 39 39 39 40 39 39 39 39 38 38 38 39 39 39 39 39 40 40 40 40 41 41 42 44 44 45 46 47 48 49 50 51 52
48 48 47 46 46 45 44 43 43 42 42 42 42 42 42 41 41 40 41 41 41 41 41 42 42 42 43 43 43 43 43 44 45 45 46 47 49 50 51 52 52 53 55
51 50 50 50 49 48 47 47 46 46 46 46 46 45 44 44 43 43 43 43 44 44 44 44 45 45 46 46 46 46 47 47 48 49 50 51 52 53 54 55 55 57 58
54 53 53 53 52 51 51 50 50 50 50 50 49 48 47 47 46 46 45 45 45 46 46 47 48 48 48 49 50 50 51 51 52 53 54 55 56 56 57 58 59 60 61
58 57 56 56 55 54 54 53 53 53 52 52 52 51 50 49 48 48 48 48 48 48 48 49 51 52 52 53 53 54 55 56 57 58 59 60 60 61 62 63 63 64 65
62 60 59 59 57 57 56 55 55 54 54 53 53 52 52 51 50 50 50 50 50 50 49 51 53 54 55 57 58 59 60 61 62 63 64 65 65 66 67 67 68 68 69
65 63 61 60 59 58 57 56 56 56 55 54 54 53 54 53 52 52 52 52 52 51 51 52 55 57 59 61 62 63 65 66 66 67 69 69 70 71 71 71 71 71 71
68 66 63 61 60 59 58 58 57 57 56 55 55 55 54 54 54 54 55 55 54 55 55 55 58 60 64 66 67 68 68 69 70 71 72 73 73 73 74 74 74 75 75
67 66 64 62 60 59 59 58 58 57 56 55 55 55 54 55 55 56 57 58 58 59 59 61 62 65 68 70 70 72 72 73 73 74 75 75 76 76 77 78 78 79 80
65 64 62 61 59 58 57 57 56 55 55 55 54 54 54 55 55 56 57 59 60 62 64 64 65 69 71 72 74 74 74 75 76 77 78 78 79 80 81 82 82 83 84
59 59 58 58 57 56 56 54 53 53 53 53 53 53 53 54 55 57 59 61 64 66 67 68 69 72 73 75 75 75 76 77 79 80 80 81 83 84 85 86 86 87 87
51 52 52 52 52 52 51 50 50 49 50 51 51 52 52 55 56 58 60 63 66 68 69 71 73 74 75 75 77 77 78 79 80 82 84 85 86 87 88 88 88 87 86
42 43 43 44 45 45 45 45 45 46 47 48 49 50 52 54 56 59 62 65 68 70 72 73 74 75 76 77 79 81 81 82 83 85 87 88 88 88 88 87 85 83 81
31 33 35 36 37 37 38 39 41 43 44 45 47 49 51 54 57 61 63 66 69 70 72 74 75 76 78 81 82 84 85 86 85 87 87 85 86 84 82 80 76 74 72
23 26 28 30 31 33 35 36 38 40 42 44 46 49 52 55 59 61 63 66 68 71 74 76 78 80 82 84 85 86 87 86 85 84 83 78 76 74 71 68 66 65 63
17 20 23 25 28 30 32 34 37 38 41 44 47 51 54 56 58 61 64 66 70 73 76 78 80 82 84 86 86 84 82 79 74 71 71 66 63 61 58 56 57 56 55
14 17 20 22 25 27 29 31 34 38 40 43 46 49 53 56 59 62 65 68 72 75 77 80 82 83 82 80 77 73 67 62 58 56 57 55 51 49 46 46 48 50 50
11 14 18 21 23 25 28 32 36 38 40 43 46 50 53 57 61 65 68 71 73 76 77 78 78 76 72 67 62 58 53 50 48 45 45 44 42 41 37 35 39 43 45
Wind_Direction
277 277 278 278 278 278 278 279 280 280 281 282 284 285 285 286 286 286 287 287 286 285 285 286 286 285 285 284 284 284 283 282 280 279 277 276 275 273 272 271 272 274 275
274 275 276 275 275 276 277 279 279 280 281 282 283 284 285 286 287 287 288 289 288 287 286 286 286 285 284 284 283 283 282 281 280 279 278 277 275 273 272 271 271 271 272
271 273 274 273 273 274 276 277 278 279 280 282 283 284 285 286 288 289 290 290 290 289 287 286 285 284 284 283 282 281 280 280 279 278 278 277 276 275 274 273 272 272 272
269 270 271 272 273 273 274 275 277 279 280 282 282 283 284 286 288 290 291 291 291 290 289 287 285 284 284 283 282 281 280 280 280 279 278 278 277 276 275 274 273 273 272
267 268 270 271 272 272 273 274 276 278 279 281 281 282 283 284 287 289 290 291 291 291 290 289 288 286 285 285 284 284 283 282 281 281 280 279 278 277 277 276 275 274 273
265 266 267 269 270 271 272 274 275 276 278 279 280 281 282 283 285 287 289 290 291 291 291 291 291 290 289 288 287 286 285 284 283 282 281 281 280 279 278 277 276 275 274
263 265 266 268 269 270 271 272 274 275 276 278 280 280 282 284 285 286 288 289 290 291 292 292 292 292 292 291 290 289 288 287 286 285 284 283 282 281 280 278 277 276 275
264 265 265 266 267 269 270 272 272 274 276 277 279 280 282 283 285 286 287 289 290 291 292 292 293 294 294 293 292 291 291 289 288 287 286 285 284 283 281 280 279 278 276
261 261 262 263 265 267 269 271 273 274 276 277 279 280 281 282 284 285 287 288 289 290 291 292 293 293 293 293 293 292 292 292 291 290 289 288 287 285 283 281 280 278 277
258 259 260 262 264 266 268 270 272 274 275 277 278 279 280 281 283 284 286 287 289 290 291 291 292 292 292 292 292 292 292 292 292 292 291 290 289 288 286 284 282 280 279
259 260 261 262 264 265 267 269 271 273 275 276 278 279 279 280 282 283 284 286 287 289 289 289 290 291 291 291 291 292 292 292 292 292 292 291 290 289 287 285 284 282 281
257 258 260 261 262 264 265 267 269 271 274 275 277 278 279 280 281 282 283 284 286 287 287 288 289 289 289 290 291 291 292 292 292 292 291 291 290 289 288 286 285 284 283
257 257 258 259 260 262 263 264 267 269 272 274 275 277 278 279 281 283 284 284 285 286 287 288 288 288 288 290 291 291 292 292 292 292 291 290 290 289 288 287 286 284 283
256 256 256 257 258 259 261 263 265 267 270 273 274 276 278 279 281 283 284 285 284 285 286 287 287 288 289 290 291 291 292 292 292 292 291 290 289 289 288 287 285 284 283
255 255 255 256 256 257 259 260 263 265 268 271 273 275 277 279 281 282 283 284 284 284 285 286 286 287 289 290 291 292 292 292 291 291 291 290 289 288 287 286 285 283 282
254 254 254 254 255 256 257 259 261 264 266 269 271 274 276 279 280 281 282 283 283 284 285 285 286 288 290 290 291 292 292 292 291 290 290 289 288 287 286 285 284 283 282
253 253 253 253 254 256 257 258 260 263 265 268 271 273 276 278 280 281 281 283 283 285 284 286 287 289 290 291 292 292 292 291 291 290 290 289 288 287 286 285 284 283 282
251 251 252 252 254 255 257 259 261 263 265 267 270 273 276 277 279 280 281 283 284 285 286 287 288 290 291 292 292 292 292 292 291 291 290 289 288 288 287 286 285 284 283
250 250 251 252 253 255 257 259 261 263 265 267 270 273 275 277 278 279 280 283 284 285 286 288 290 291 291 292 292 292 292 292 292 292 291 290 289 289 288 287 286 286 284
248 249 250 251 253 255 257 259 261 264 266 268 270 272 274 276 279 280 282 283 285 287 289 290 291 291 292 293 293 293 293 293 293 292 291 291 290 290 289 288 287 286 285
246 247 249 251 252 254 257 259 262 264 266 268 270 273 275 277 280 282 283 285 287 289 291 292 293 294 294 294 294 294 294 294 293 292 292 292 291 290 289 289 288 287 285
242 244 247 249 252 255 258 260 262 264 267 270 273 275 277 279 281 283 285 287 289 291 293 294 295 295 295 295 295 295 295 294 293 292 292 292 291 291 290 289 288 287 285
237 241 246 249 252 255 259 261 264 267 270 273 275 277 279 281 284 286 288 291 293 295 295 296 296 296 296 296 296 296 295 295 295 294 293 292 291 291 290 289 287 286 285
236 240 245 249 252 257 260 264 267 270 274 276 278 280 283 286 289 292 294 295 296 297 297 298 298 298 297 297 297 297 296 296 296 295 294 295 293 293 292 290 288 287 286
236 244 249 252 257 260 265 270 275 280 281 283 286 288 291 294 295 296 297 298 299 299 299 299 299 299 299 298 298 299 299 300 300 299 298 300 298 296 295 292 289 287 287
245 251 257 260 264 269 274 278 283 286 290 293 295 297 298 299 299 300 300 300 300 300 300 300 300 300 301 301 302 303 304 304 305 303 302 305 304 302 299 293 289 288 290
Height
5823 5823 5823 5823 5823 5823 5823 5822 5822 5822 5821 5821 5820 5819 5819 5818 5817 5816 5815 5814 5813 5812 5811 5810 5809 5808 5808 5807 5806 5806 5805 5804 5804 5803 5803 5803 5803 5803 5803 5803 5802 5802 5802
5817 5817 5817 5817 5817 5817 5817 5817 5816 5816 5815 5815 5814 5813 5813 5812 5811 5810 5809 5808 5807 5806 5805 5804 5803 5801 5800 5800 5799 5798 5798 5797 5796 5796 5795 5795 5795 5795 5795 5795 5795 5795 5795
5811 5811 5811 5811 5811 5811 5811 5811 5810 5810 5809 5809 5808 5807 5806 5806 5805 5804 5803 5801 5800 5799 5798 5797 5795 5794 5793 5792 5791 5791 5790 5789 5788 5788 5787 5787 5787 5787 5787 5786 5786 5786 5786
5805 5805 5805 5805 5805 5805 5805 5804 5804 5804 5803 5803 5802 5801 5800 5799 5798 5797 5796 5795 5793 5792 5790 5789 5788 5787 5785 5784 5783 5782 5781 5781 5780 5779 5779 5778 5778 5778 5777 5777 5777 5777 5777
5798 5798 5799 5798 5798 5798 5798 5798 5798 5797 5797 5796 5796 5795 5794 5793 5792 5791 5789 5788 5786 5784 5783 5781 5780 5779 5777 5776 5775 5774 5773 5772 5771 5770 5769 5768 5768 5767 5767 5766 5766 5765 5765
5791 5791 5791 5791 5791 5791 5791 5791 5791 5790 5790 5789 5789 5788 5787 5786 5785 5783 5782 5780 5779 5777 5775 5774 5772 5771 5769 5768 5766 5765 5763 5762 5761 5760 5759 5758 5757 5756 5755 5754 5754 5753 5753
5783 5784 5784 5784 5784 5784 5784 5783 5783 5783 5782 5782 5781 5780 5779 5778 5777 5776 5774 5773 5771 5769 5767 5766 5764 5762 5760 5759 5757 5755 5754 5752 5751 5749 5748 5747 5745 5744 5743 5742 5741 5740 5740
5775 5775 5775 5775 5775 5775 5775 5775 5775 5775 5775 5774 5773 5772 5772 5771 5769 5767 5766 5764 5763 5761 5759 5757 5755 5753 5751 5749 5747 5746 5744 5742 5740 5738 5737 5735 5734 5732 5731 5729 5728 5727 5726
5765 5765 5766 5766 5766 5767 5767 5767 5767 5767 5766 5766 5765 5764 5763 5762 5761 5759 5757 5755 5754 5752 5750 5748 5746 5744 5742 5739 5737 5735 5733 5731 5729 5727 5725 5723 5721 5720 5718 5716 5715 5714 5713
5754 5754 5755 5756 5757 5757 5758 5758 5757 5757 5757 5756 5755 5755 5754 5752 5751 5750 5748 5746 5744 5742 5740 5738 5736 5734 5731 5729 5727 5725 5722 5720 5717 5715 5712 5710 5708 5706 5704 5703 5701 5700 5698
5743 5744 5745 5746 5747 5748 5748 5748 5748 5748 5747 5747 5746 5744 5743 5742 5741 5740 5738 5736 5734 5732 5730 5727 5725 5723 5720 5717 5715 5713 5710 5707 5705 5702 5699 5697 5694 5692 5690 5688 5686 5684 5683
5731 5732 5733 5735 5736 5737 5737 5738 5738 5737 5737 5736 5735 5735 5733 5732 5730 5729 5728 5726 5723 5721 5718 5716 5713 5710 5708 5705 5702 5700 5697 5694 5691 5688 5684 5681 5679 5676 5673 5671 5669 5667 5665
5718 5720 5720 5722 5724 5725 5726 5726 5726 5726 5725 5725 5724 5723 5722 5721 5720 5718 5716 5714 5712 5709 5706 5703 5700 5697 5694 5691 5688 5686 5682 5679 5676 5672 5669 5665 5662 5659 5656 5653 5650 5648 5646
5703 5705 5706 5709 5711 5712 5713 5714 5714 5714 5714 5714 5713 5712 5711 5709 5708 5706 5704 5702 5699 5697 5694 5690 5686 5682 5680 5676 5673 5670 5667 5663 5659 5655 5651 5647 5644 5640 5637 5634 5631 5628 5626
5686 5689 5692 5694 5696 5699 5700 5701 5702 5702 5702 5702 5702 5701 5699 5698 5696 5694 5692 5689 5687 5684 5681 5677 5673 5669 5664 5661 5657 5654 5650 5646 5641 5637 5632 5628 5624 5620 5617 5613 5610 5607 5604
5669 5673 5676 5680 5683 5685 5687 5688 5689 5690 5691 5690 5690 5689 5687 5686 5683 5681 5678 5675 5672 5670 5667 5664 5659 5654 5649 5645 5640 5636 5632 5627 5622 5618 5613 5608 5603 5599 5595 5591 5587 5584 5581
5651 5656 5661 5665 5668 5671 5674 5675 5677 5678 5678 5678 5678 5677 5675 5673 5671 5667 5664 5661 5658 5654 5651 5648 5643 5638 5633 5627 5622 5617 5612 5608 5602 5596 5591 5585 5581 5576 5572 5567 5563 5559 5555
5635 5641 5646 5651 5655 5658 5661 5663 5665 5666 5666 5667 5666 5665 5663 5661 5658 5654 5651 5647 5643 5639 5635 5631 5626 5620 5615 5609 5603 5598 5593 5587 5581 5575 5568 5562 5556 5551 5546 5541 5536 5532 5528
5621 5627 5633 5638 5642 5646 5649 5652 5653 5655 5655 5655 5654 5652 5650 5648 5644 5641 5637 5633 5628 5623 5618 5613 5609 5602 5596 5589 5583 5578 5572 5566 5559 5551 5544 5537 5531 5524 5518 5512 5507 5502 5497
5609 5615 5621 5626 5631 5635 5638 5641 5642 5643 5644 5643 5642 5640 5638 5635 5631 5627 5623 5618 5612 5607 5601 5595 5590 5584 5577 5569 5562 5557 5553 5544 5536 5527 5518 5511 5503 5496 5488 5482 5477 5471 5465
5600 5606 5612 5617 5621 5625 5629 5631 5632 5633 5633 5632 5630 5628 5625 5622 5617 5613 5608 5602 5597 5590 5583 5577 5571 5564 5556 5548 5541 5534 5529 5522 5514 5502 5494 5484 5474 5467 5459 5451 5445 5439 5434
5593 5599 5605 5610 5614 5617 5620 5621 5622 5622 5622 5621 5619 5616 5613 5609 5604 5599 5593 5587 5580 5572 5565 5558 5552 5544 5536 5527 5519 5511 5503 5497 5490 5478 5467 5460 5446 5440 5431 5424 5416 5409 5405
5589 5595 5600 5604 5607 5610 5612 5613 5613 5613 5612 5610 5607 5604 5600 5595 5590 5584 5578 5571 5562 5553 5546 5539 5531 5522 5513 5504 5496 5488 5478 5469 5461 5448 5439 5437 5423 5416 5408 5400 5392 5386 5382
5588 5592 5596 5599 5601 5603 5605 5605 5605 5604 5602 5599 5596 5592 5587 5581 5575 5569 5563 5554 5545 5535 5526 5517 5508 5499 5489 5479 5470 5462 5453 5445 5437 5423 5412 5411 5404 5396 5389 5381 5372 5366 5363
5587 5590 5593 5595 5597 5598 5598 5598 5597 5595 5592 5588 5584 5579 5574 5568 5561 5554 5546 5537 5527 5516 5505 5494 5484 5475 5465 5455 5446 5439 5431 5423 5418 5408 5394 5390 5385 5379 5374 5366 5357 5350 5346
5587 5589 5590 5591 5592 5592 5591 5590 5588 5585 5582 5577 5572 5566 5560 5553 5544 5535 5527 5517 5507 5496 5485 5474 5462 5451 5442 5434 5426 5419 5413 5407 5400 5394 5383 5377 5371 5363 5361 5355 5346 5338 5332